Other Public Products
Issued by NWS Grand Forks, ND

Home | Current Version | Previous Version | Graphics & Text | Print | Product List | Glossary On
Versions: 1 2 3 4 5 6 7 8 9 10 11 12 13 14 15 16 17 18 19 20 21 22 23 24 25 26 27 28 29 30 31 32 33 34 35 36 37 38 39 40 41 42 43 44 45 46 47 48 49 50
000
FPUS83 KFGF 270831
OPUFGF
PRAIRIE TO PINES WEATHER ROUNDUP
NATIONAL WEATHER SERVICE EASTERN NORTH DAKOTA/GRAND FORKS ND
300 AM CDT MON APR 27 2015

 **SATELLITE DATA USED TO AUGMENT SKY COVER AT AUTOMATED STATIONS**
 *****  WEATHER ACROSS EASTERN NORTH DAKOTA  *****

CITY           SKY/WX    TMP DP  RH WIND       PRES   REMARKS
GRAND FORKS    FAIR      44  26  49 S3        30.16S
GRAND FORKS AF FAIR      35  30  81 W5        30.16R
GRAND CITY NWS   N/A     39 N/A N/A E5          N/A
BUXTON           N/A     42  25  50 CALM        N/A
DEVILS LAKE    CLOUDY    43  39  87 CALM      30.17R
FARGO          FAIR      41  26  55 S8        30.17R
WAHPETON ARPT  FAIR      36  27  69 SE5       30.20R
$$

 *****  WEATHER ACROSS CENTRAL AND WESTERN NORTH DAKOTA  *****

CITY           SKY/WX    TMP DP  RH WIND       PRES   REMARKS
JAMESTOWN      FAIR      40  31  70 CALM      30.17S
BISMARCK       FOG       40  40 100 SE3       30.18S VSB 1/2
MINOT          LGT RAIN  42  38  85 NW14      30.20R
MINOT AFB      LGT RAIN  42  42 100 NW12      30.20R
GARRISON         N/A     45  43  93 CALM      30.18S
WILLISTON      LGT RAIN  42  38  85 N7        30.24S
DICKINSON      LGT RAIN  42  40  92 NW10      30.19R FOG
HETTINGER      LGT RAIN  42  40  92 NW10      30.19R
$$

 *****  OTHER OBSERVATIONS NORTHEAST NORTH DAKOTA  *****

CITY           SKY/WX    TMP DP  RH WIND       PRES   REMARKS
WALHALLA       CLOUDY    46  46 100 SW3       30.17R
LANGDON        CLOUDY    43  39  87 W5        30.17S FOG
CAVALIER       FAIR      41  37  87 CALM      30.16S FOG
GRAFTON        FAIR      39  37  93 CALM      30.17R FOG
CANDO          FOG       41  41 100 W3        30.19R VSB 1
FORT TOTTEN      N/A     44  44 100 CALM      29.95S
ROLLA          CLOUDY    45  45 100 NW14      30.19R
RUGBY          NOT AVBL
 ***** THE ABOVE OBSERVATIONS ARE NON NWS ARE NOT QUALITY
        CONTROLLED AND MAY MIS-REPORT RAIN FOR SNOW...
$$

 *****  OTHER OBSERVATIONS SOUTHEAST NORTH DAKOTA *****

CITY           SKY/WX    TMP DP  RH WIND       PRES   REMARKS
COOPERSTOWN    NOT AVBL
VALLEY CITY    FAIR      45  28  53 W3        30.18R
OAKES            N/A     37  27  65 SW3       30.18S
GWINNER        SUNNY     39  28  65 S7        30.20R
SHEYENNE NWR     N/A     32  24  72 CALM      29.95
BUFFALO        NOT AVBL
WYNDMERE       NOT AVBL
 ***** THE ABOVE OBSERVATIONS ARE NON NWS ARE NOT QUALITY
       CONTROLLED AND MAY MIS-REPORT RAIN FOR SNOW...
$$

  *****  WEATHER ACROSS NORTHERN MINNESOTA  *****

CITY           SKY/WX    TMP DP  RH WIND       PRES   REMARKS
FLAG ISLAND    FAIR      41  34  75 CALM      30.18R
WARROAD        FAIR      34  28  80 CALM      30.18S
ROSEAU         FAIR      36  28  75 CALM      30.18R
HALLOCK        FAIR      39  21  48 S5        30.16R
THF RVR FALLS  FAIR      43  21  42 S3        30.18S
HALSTAD          N/A     37  21  52 S8          N/A
FOSSTON        FAIR      37  25  60 CALM      30.18S
BAUDETTE       FAIR      34  28  79 CALM      30.18S
WASKISH        FAIR      30  27  86 CALM      30.18S
CROOKSTON      FAIR      39  27  60 S7        30.18R
$$
  *****  WEATHER ACROSS CENTRAL AND WEST MINNESOTA  *****

CITY           SKY/WX    TMP DP  RH WIND       PRES   REMARKS
BEMIDJI        FAIR      32  23  69 CALM      30.18R
PARK RAPIDS    FAIR      32  25  75 CALM      30.17S
WADENA         FAIR      28  25  86 SW5       30.20R WCI  23
DETROIT LAKES  FAIR      41  28  60 CALM      30.20R
MOORHEAD       FAIR      39  23  52 S5        30.19R
FERGUS FALLS   FAIR      43  25  49 CALM      30.22R
ELBOW LAKE     FAIR      44  28  54 SE5       30.20R
MORRIS MN      FAIR      39  21  48 CALM      30.19S
STAPLES        FAIR      30  25  80 CALM      30.19R
WHEATON        FAIR      37  21  52 CALM      30.22R
$$
  *****  WEATHER ELSEWHERE ACROSS MINNESOTA  *****

CITY           SKY/WX    TMP DP  RH WIND       PRES   REMARKS
DULUTH         FAIR      30  22  72 CALM      30.17F
INTRNTL FALLS  FAIR      28  22  78 CALM      30.18F
ELY            FAIR      27  25  93 CALM      30.19S
CLOQUET        FAIR      28  21  74 NW3       30.18S
BRAINERD       FAIR      30  24  78 CALM      30.18S
HIBBING        FAIR      26  19  74 CALM      30.18S
ALEXANDRIA     FAIR      36  30  79 CALM      30.20R
SAINT CLOUD    FAIR      32  24  72 NW3       30.18R
MINNEAPOLIS    FAIR      41  32  70 CALM      30.18R
$$

  *****  WEATHER ACROSS SOUTH DAKOTA  *****

CITY           SKY/WX    TMP DP  RH WIND       PRES   REMARKS
SIOUX FALLS    FAIR      36  29  75 NE5       30.15S
BROOKINGS      FAIR      39  25  56 CALM      30.18S
WATERTOWN      FAIR      36  25  64 CALM      30.17F
HURON          CLEAR     42  28  57 E5        30.16S
SISSETON         N/A     36  26  67 CALM      30.18S
ABERDEEN       PTCLDY    37  29  72 CALM      30.18S
MITCHELL       CLEAR     43  33  68 E5        30.16S
PIERRE         MOCLDY    40  33  76 E5        30.14S
MOBRIDGE       CLOUDY    46  34  62 CALM      30.13F
RAPID CITY     MOCLDY    41  39  93 N7        30.16S
$$

  *****  SOME WEATHER IN NEARBY STATES *****

CITY           SKY/WX    TMP DP  RH WIND       PRES   REMARKS
GLASGOW MT     LGT RAIN  40  36  86 W7        30.26R
GREAT FALLS MT CLEAR     30  27  88 S9        30.22S WCI  22
CHEYENNE WY    LGT SNOW  33  31  92 CALM      30.13F FOG
SCOTTSBLUFF NE CLOUDY    44  32  62 CALM      30.15F
OMAHA NE       FAIR      40  36  86 NW6       30.10S
DES MOINES IA  FAIR      45  32  60 CALM      30.10F
DAVENPORT IA   FAIR      34  29  82 NE13      30.07S WCI  25
CHICAGO IL     FAIR      40  30  67 N8        30.06R
EAU CLAIRE WI  FAIR      37  25  61 N3        30.15S
LA CROSSE WI   FAIR      43  30  60 NW9       30.13R
$$

  *****  SOME NATIONAL WEATHER *****

CITY           SKY/WX    TMP DP  RH WIND       PRES   REMARKS
LA GUARDIA NY  MOCLDY    49  32  52 NW13      29.66F
RALEIGH NC     FAIR      41  40  96 CALM      29.77S
ATLANTA GA     FAIR      54  47  77 N12       29.78F
NEW ORLEANS LA MOCLDY    75  71  87 E3        29.68F
OKLAHOMA CITY  CLOUDY    54  48  82 N20       29.79F
ALBUQUERQUE NM CLOUDY    45  37  73 E15       29.90F
SALT LAKE CITY PTCLDY    44  36  73 NW3       30.15R
LOS ANGELES CA PTCLDY    60  53  77 E8        29.94S
BOISE ID       CLEAR     46  26  45 W6        30.23R
SEATTLE WA     DRIZZLE   52  49  89 S6        30.27R FOG
$$

*** WEATHER ACROSS MANITOBA...SASKATCHEWAN AND ONTARIO ***
                ***ONTARIO***

CITY           SKY/WX    TMP DP  RH WIND       PRES   REMARKS
GERALDTON      CLEAR     30  27  86 N3        30.17F
THUNDER BAY    CLEAR     30  28  93 SW5       30.18S
SIOUX LOOKOUT  PTCLDY    27  25  93 VRB2      30.21S
TORONTO        LGT RAIN  41  37  87 N14       29.80S
BIG TROUT LK   CLEAR     27  25  93 SE3       30.28F
PICKLE LAKE    NOT AVBL
DRYDEN         CLEAR     36  30  80 E5        30.20R
KENORA         PTCLDY    43  23  45 SE6       30.19
$$
                *** MANITOBA***

CITY           SKY/WX    TMP DP  RH WIND       PRES   REMARKS
BRANDON        CLOUDY    41  36  81 W8        30.19S
DAUPHIN        CLOUDY    43  34  70 NW12G17   30.18R
ISLAND LAKE    CLOUDY    43  27  52 SE9       30.14F
PILOT MOUND      N/A     46  41  81 NW9         N/A
THE PAS        CLOUDY    34  34 100 W10G18    30.10R FOG
THOMPSON       CLOUDY    43  30  61 E5        30.03
WINNIPEG       MOCLDY    52  45  76 W5        30.16S
CHURCHILL      MOCLDY    23  23 100 NE12      30.37S WCI  12
GILLAM         CLOUDY    36  28  75 E6        30.19F
$$
                ***SASKATCHEWAN***

CITY           SKY/WX    TMP DP  RH WIND       PRES   REMARKS
ESTEVAN        LGT RAIN  39  34  81 NW8       30.23S
KINDERSLEY     CLEAR     30  27  86 S7        30.18S WCI  23
LLOYDMINSTER   CLEAR     34  21  60 S7        30.14S
PRINCE ALBERT  CLEAR     30  30 100 W3        30.21R
REGINA         CLOUDY    36  34  93 W2        30.23R
YORKTON        CLOUDY    37  32  81 W9        30.20R


USA.gov is the U.S. government's official web portal to all federal, state and local government web resources and services.